Weather History for Jamestown, ND

Change the Weather History Date:

Tuesday, December 10, 2013

  Actual Average Record
Temperature  
Mean Temperature 2 °F 16 °F  
Max Temperature 13 °F 24 °F 55 °F (1939)
Min Temperature -9 °F 7 °F -26 °F (1927)
Degree Days  
Heating Degree Days 63 49  
Month to date heating degree days 610 477  
Since 1 July heating degree days 2618 2561  
Cooling Degree Days 0 0  
Month to date cooling degree days 0 0  
Year to date cooling degree days 521 446  
Moisture  
Dew Point -3 °F    
Average Humidity 80    
Maximum Humidity 91    
Minimum Humidity 68    
Precipitation  
Precipitation T in 0.01 in 0.14 in (1996)
Month to date precipitation 0.18 0.13  
Year to date precipitation 16.05 18.50  
Sea Level Pressure  
Sea Level Pressure 30.05 in    
Wind  
Wind Speed 15 mph (WNW)    
Max Wind Speed 29 mph    
Max Gust Speed 35 mph    
Visibility 7 miles    
Events Snow    
T = Trace of Precipitation, MM = Missing Value Source: NWS Daily Summary

Daily Weather History Graph

Daily Weather History Graph

Search for Another Location

Airport:

Trip Planner

Search our weather history database for the weather conditions in past years. The results will help you decide how hot, cold, wet, or windy it might be!

Date:

Astronomy

Dec. 10, 2013 Rise Set
Actual Time 8:09 AM CST 4:45 PM CST
Civil Twilight 7:34 AM CST 5:20 PM CST
Nautical Twilight 6:55 AM CST 5:59 PM CST
Astronomical Twilight 6:18 AM CST 6:36 PM CST
Moon 1:07 PM CST (12/10) 1:07 AM CST (12/10)
Length of Visible Light 9h 46m
Length of Day
8h 36m
Waxing Gibbous, 62% of the Moon is Illuminated
Dec 10
Waxing Gibbous
Dec 17
Full
Dec 25
Last Quarter
Jan 1
New
Jan 7
First Quarter

Hourly Weather History & Observations

Time (CST) Temp. Windchill Dew Point Humidity Pressure Visibility Wind Dir Wind Speed Gust Speed Precip Events Conditions
12:26 AM -0.9 °F -25.9 °F -5.1 °F 83% 29.82 in 1.5 mi NW 26.5 mph 33.4 mph 0.00 in   Scattered Clouds
12:41 AM -0.9 °F -25.0 °F -5.1 °F 83% 29.83 in 2.5 mi NW 24.2 mph - 0.00 in   Partly Cloudy
12:54 AM -2.2 °F -26.2 °F -5.8 °F 85% 29.83 in 4.0 mi NW 23.0 mph - 0.00 in   Clear
12:56 AM -2.0 °F -26.0 °F -6.0 °F 83% 29.96 in 5.0 mi NW 23.0 mph - 0.00 in   Clear
1:17 AM -2.0 °F -24.4 °F -7.1 °F 79% 29.85 in 4.0 mi NW 19.6 mph - 0.00 in   Scattered Clouds
1:56 AM -2.9 °F -23.8 °F -8.0 °F 79% 30.00 in 10.0 mi WNW 16.1 mph - 0.00 in   Clear
2:56 AM -2.9 °F -22.4 °F -9.0 °F 75% 30.02 in 10.0 mi WNW 13.8 mph - N/A   Clear
3:56 AM -4.0 °F -23.7 °F -9.0 °F 79% 30.02 in 10.0 mi WNW 13.8 mph - N/A   Clear
4:56 AM -5.1 °F -22.5 °F -9.9 °F 80% 30.01 in 10.0 mi West 10.4 mph - N/A   Clear
5:56 AM -4.0 °F -20.2 °F -9.0 °F 79% 30.01 in 10.0 mi West 9.2 mph - N/A   Clear
6:56 AM -5.1 °F -22.5 °F -9.9 °F 80% 30.00 in 8.0 mi West 10.4 mph - N/A   Clear
7:56 AM -5.1 °F -19.1 °F -9.9 °F 80% 30.00 in 10.0 mi WSW 6.9 mph - N/A   Clear
8:56 AM -5.1 °F -15.8 °F -8.0 °F 87% 30.01 in 10.0 mi WSW 4.6 mph - N/A   Clear
9:35 AM 1.0 °F -14.0 °F -4.0 °F 79% 29.90 in 10.0 mi WSW 9.2 mph - N/A   Mostly Cloudy
9:56 AM 1.9 °F -14.7 °F -4.0 °F 76% 30.02 in 10.0 mi WSW 11.5 mph - N/A   Overcast
10:13 AM 3.0 °F -12.5 °F -2.0 °F 80% 29.89 in 10.0 mi SW 10.4 mph - N/A   Overcast
10:56 AM 8.1 °F -6.2 °F 1.9 °F 76% 30.01 in 10.0 mi WSW 10.4 mph - N/A   Overcast
11:18 AM 10.0 °F -4.5 °F 3.9 °F 76% 29.90 in 4.0 mi West 11.5 mph - 0.00 in Snow Light Snow
11:28 AM 10.9 °F -5.9 °F 5.0 °F 77% 29.89 in 4.0 mi West 16.1 mph 19.6 mph 0.00 in Snow Light Snow
11:56 AM 12.9 °F -4.4 °F 8.1 °F 81% 30.00 in 9.0 mi WNW 18.4 mph 25.3 mph 0.00 in   Overcast
12:56 PM 12.9 °F -3.9 °F 7.0 °F 77% 30.01 in 10.0 mi WNW 17.3 mph - 0.00 in Snow Light Snow
1:42 PM 12.0 °F -6.0 °F 8.1 °F 84% 29.92 in 4.0 mi NW 19.6 mph - 0.00 in Snow Light Snow
1:52 PM 12.2 °F -6.7 °F 6.8 °F 79% 29.93 in 2.0 mi NNW 21.9 mph - 0.00 in Snow Light Snow
1:53 PM 12.2 °F -7.1 °F 6.8 °F 79% 29.93 in 1.8 mi NNW 23.0 mph - 0.00 in Snow Light Snow
1:56 PM 12.0 °F -7.3 °F 7.0 °F 80% 30.04 in 2.0 mi NW 23.0 mph - 0.00 in Snow Light Snow
2:05 PM 12.0 °F -5.6 °F 6.1 °F 77% 29.93 in 7.0 mi NW 18.4 mph - 0.00 in   Overcast
2:21 PM 10.9 °F -8.8 °F 5.0 °F 77% 29.94 in 10.0 mi NW 23.0 mph 28.8 mph 0.00 in   Overcast
2:56 PM 8.1 °F -12.2 °F 3.0 °F 80% 30.08 in 6.0 mi NNW 21.9 mph - 0.00 in Snow Blowing Snow
3:53 PM 3.2 °F -19.0 °F -0.4 °F 85% 30.02 in 2.5 mi NW 23.0 mph 33.4 mph 0.00 in Snow Blowing Snow
3:56 PM 3.9 °F -17.6 °F -0.9 °F 80% 30.15 in 4.0 mi NW 21.9 mph 32.2 mph 0.00 in Snow Blowing Snow
4:56 PM 1.9 °F -20.7 °F -4.0 °F 76% 30.21 in 10.0 mi NNW 23.0 mph 28.8 mph N/A   Clear
5:56 PM -0.0 °F -21.3 °F -7.1 °F 72% 30.26 in 10.0 mi NW 18.4 mph 28.8 mph N/A   Clear
6:56 PM -2.0 °F -23.3 °F -9.0 °F 72% 30.31 in 10.0 mi NW 17.3 mph - N/A   Clear
7:56 PM -4.0 °F -25.8 °F -11.0 °F 72% 30.35 in 10.0 mi NW 17.3 mph - N/A   Clear
8:56 PM -5.1 °F -28.4 °F -11.0 °F 76% 30.38 in 10.0 mi NW 19.6 mph - N/A   Clear
9:56 PM -6.0 °F -24.6 °F -13.0 °F 72% 30.42 in 10.0 mi NW 11.5 mph - N/A   Clear
10:56 PM -8.0 °F -29.6 °F -14.1 °F 75% 30.44 in 10.0 mi NW 15.0 mph - N/A   Clear
11:56 PM -9.0 °F -27.4 °F -16.1 °F 71% 30.48 in 10.0 mi NW 10.4 mph - N/A   Clear